Retour au catalogue

STARLINK-31561

ActifCommunicationsVLEO
NORAD 59352·PAYLOAD·🇺🇸 United States

Lancé Mar 31, 2024 depuis Cape Canaveral Space Force Station

Loading…

Prochains Passages (prochaines 24 heures)

TLE

FraisSource: CelesTrak SupGP

Époque: Sep 15, 2026, 02:37 UTC

1 59352C 24060E   26258.10951389 -.00015221  00000+0 -55133-3 0  2585
2 59352  43.0027 269.6974 0001359 266.5127 214.4097 15.27584787    14

Suivez STARLINK-31561 en temps réel avec AllMySat

Download on the App Store